Temperature
14 14 15 15 16 16 17 20 22 23 24 25 26 26 25 25 25 23 21 21 20 20 20 20 19 18 18 17 17 17 17 17 17 16 16 16 16 16 16 16 16 15 15 15 14 14 14 14 14
13 14 14 15 15 16 18 20 21 23 24 25 25 25 25 24 24 23 21 20 20 20 19 19 18 18 17 17 17 17 17 17 16 16 16 16 16 16 15 15 15 15 14 14 14 14 14 14 14
13 14 15 15 15 17 19 22 23 24 24 24 24 24 24 24 23 22 21 20 20 19 19 18 18 17 17 16 16 16 16 16 16 16 16 16 15 15 15 15 15 14 14 14 14 14 14 14 14
13 14 15 15 16 18 20 22 22 23 24 24 23 23 24 23 22 21 21 20 19 19 18 18 17 17 16 16 16 16 16 16 16 16 15 15 15 15 14 14 14 14 14 14 14 14 14 14 14
12 14 14 14 16 18 20 22 23 22 23 23 23 22 22 22 22 21 20 20 19 18 18 17 17 16 16 16 16 16 16 16 15 15 15 15 15 14 14 14 14 13 13 13 13 14 14 14 14
13 14 14 15 17 19 20 22 22 22 22 22 22 21 22 21 21 21 20 19 18 18 17 17 16 16 16 16 16 15 15 15 15 15 15 15 14 14 14 13 13 13 13 13 13 13 13 13 13
12 13 14 15 16 18 20 21 21 20 20 21 21 20 20 20 20 20 19 18 18 17 17 16 16 16 16 15 15 15 15 15 15 15 14 14 14 14 13 13 13 13 13 13 13 13 13 13 13
12 13 13 14 15 17 19 19 19 19 19 20 20 19 19 18 18 18 18 17 17 17 16 16 16 15 15 15 15 15 15 15 15 14 14 14 13 13 13 13 13 13 13 12 12 13 13 13 13
11 11 12 14 15 16 17 17 17 17 18 18 18 18 18 17 17 17 17 17 16 16 16 16 16 15 15 15 15 15 14 14 14 14 14 13 13 13 13 13 12 12 12 12 12 12 12 13 12
11 10 12 14 15 15 15 15 15 16 16 17 17 16 16 16 16 16 16 16 16 16 16 15 15 15 15 15 14 14 14 14 14 13 13 13 13 12 12 12 12 12 12 12 12 12 12 12 12
11 11 12 14 14 14 14 14 14 14 14 15 15 15 15 15 15 15 15 15 15 16 15 15 15 15 15 14 14 14 14 13 13 13 13 13 12 12 12 12 12 12 12 12 12 12 11 11 11
11 12 12 13 13 13 13 13 13 13 14 15 15 14 14 14 14 14 14 15 15 15 15 15 15 14 14 14 14 14 13 13 13 13 13 12 12 12 12 12 12 12 11 11 11 11 11 11 11
10 11 11 11 11 11 12 12 13 13 14 14 14 14 13 13 14 14 14 14 14 14 15 15 14 14 14 14 14 13 13 13 13 13 12 12 12 12 12 12 11 11 11 11 11 11 11 11 11
10 10 10 11 11 11 11 12 12 13 14 14 14 13 13 13 13 14 14 14 14 14 14 14 14 14 14 13 13 13 13 13 13 12 12 12 12 12 12 11 11 11 11 11 11 10 10 10 10
10 9 10 11 11 11 11 11 12 13 14 14 14 13 13 13 13 13 14 13 13 14 14 14 14 13 13 13 13 13 13 13 12 12 12 12 12 12 11 11 11 11 11 11 11 10 10 10 10
9 9 9 11 12 12 11 10 12 13 13 13 13 13 13 13 13 13 13 13 13 13 13 13 13 13 13 13 13 13 13 12 12 12 12 12 12 12 11 11 11 11 11 11 10 10 10 10 10
9 8 9 10 11 11 11 10 12 13 13 13 13 13 13 13 13 13 13 13 13 13 13 13 13 13 13 13 13 13 12 12 12 12 12 12 12 12 11 11 11 11 11 11 10 10 10 10 10
8 7 8 9 11 11 10 10 12 13 13 13 13 12 12 12 12 12 12 13 13 12 12 12 13 12 12 12 12 12 12 12 12 12 12 12 12 12 12 12 11 11 11 11 10 10 10 10 10
8 8 8 9 10 10 10 10 11 12 12 12 12 12 12 12 12 12 12 12 12 12 12 12 12 12 12 12 12 12 12 12 12 12 11 12 12 12 12 12 11 11 11 11 10 10 10 10 10
8 7 8 9 10 10 9 10 11 12 12 12 12 12 11 11 11 11 11 12 12 11 11 11 11 12 12 12 12 12 12 12 12 12 11 11 12 12 12 12 11 11 11 11 10 10 10 9 9
8 8 8 8 9 10 9 9 11 12 12 12 12 12 11 11 11 11 11 11 11 11 11 11 11 11 11 11 11 12 11 11 11 11 11 11 11 12 12 12 11 11 11 11 10 10 10 9 9
7 9 9 8 7 7 9 7 9 11 11 12 12 12 11 11 11 10 10 10 10 10 11 11 11 11 11 11 11 11 11 11 11 11 11 11 11 11 12 11 11 11 11 11 11 10 10 10 9
8 9 8 8 8 7 8 8 9 11 11 11 11 12 11 11 11 10 10 10 10 10 10 10 11 11 11 11 11 11 11 11 11 11 11 11 11 11 11 11 11 11 11 11 11 10 10 10 10
9 8 8 9 8 7 9 9 9 10 10 11 11 12 11 11 10 10 10 10 10 10 10 10 10 11 10 11 11 11 11 11 11 11 11 11 11 11 11 11 11 11 11 11 11 10 10 10 9
8 6 6 6 6 7 10 9 9 10 11 11 11 11 11 11 10 10 9 9 9 9 10 10 10 10 10 10 11 11 11 11 11 11 11 11 11 11 12 11 11 11 11 11 11 10 10 10 10
7 7 5 5 6 7 9 9 9 11 11 11 11 11 11 10 10 9 9 9 9 9 9 10 10 10 10 10 11 11 11 11 11 11 11 11 11 12 12 12 12 12 11 11 11 10 10 10 10
7 7 8 6 6 6 8 9 10 11 10 11 10 10 10 10 9 9 9 9 9 9 9 9 9 10 10 10 10 11 11 11 11 11 11 11 11 11 11 12 12 12 11 11 11 11 10 10 10
8 7 6 5 5 6 8 9 8 9 9 9 9 9 9 9 9 9 9 8 9 9 9 9 9 9 9 10 10 10 11 11 10 10 10 11 11 11 11 11 11 11 11 11 11 11 10 10 10
7 7 6 6 6 5 6 7 9 9 9 9 9 9 9 9 8 8 8 8 8 8 8 9 9 9 9 9 10 10 10 10 10 10 10 11 11 11 11 11 11 11 11 11 11 11 10 10 10
7 7 6 4 4 5 5 6 10 9 9 9 9 9 9 8 8 8 8 8 8 8 8 8 8 9 9 9 9 10 10 10 10 10 10 11 11 11 11 11 11 11 11 11 11 10 10 10 10
Wind_Speed
11 11 8 3 4 8 15 12 12 10 8 5 4 5 7 7 4 2 6 6 10 12 17 22 22 21 20 21 20 21 21 21 20 20 19 19 18 18 18 18 18 17 17 18 18 18 18 18 17
11 8 5 4 7 12 12 14 17 14 8 3 3 6 7 6 3 6 6 8 10 11 15 19 21 21 20 21 21 21 21 21 20 20 19 19 18 18 18 18 18 18 18 18 18 18 18 17 16
11 9 4 5 10 15 10 7 7 6 6 5 4 6 6 4 2 3 7 9 9 9 13 18 23 21 21 21 21 21 22 21 21 20 19 19 19 18 18 18 18 19 19 19 18 18 17 17 16
5 4 5 10 21 19 16 12 10 8 6 5 5 5 4 2 1 4 7 8 8 7 11 18 24 22 21 21 21 21 22 22 21 20 20 19 19 19 19 19 19 19 19 19 18 17 17 16 15
3 4 9 15 23 19 16 16 13 11 9 6 7 8 5 2 4 6 5 6 6 7 9 16 23 23 22 21 21 21 22 22 21 21 20 20 20 19 19 19 19 19 19 18 17 17 16 15 14
4 5 10 18 21 18 16 14 13 13 10 7 8 10 7 2 2 4 4 5 5 7 8 13 20 22 22 21 21 21 22 22 22 21 20 20 20 20 20 20 19 19 18 18 17 17 16 15 14
5 7 15 19 19 17 14 11 11 10 11 8 6 9 6 2 2 3 3 3 4 7 8 10 14 18 20 21 21 21 22 23 22 21 21 21 21 20 20 20 19 19 18 18 17 16 16 15 13
5 5 13 16 17 16 12 11 9 9 11 8 6 6 5 1 4 3 1 2 3 7 8 8 10 12 14 16 20 21 21 22 22 22 21 21 21 20 20 19 19 19 18 18 17 16 15 14 13
5 8 14 14 13 12 12 13 13 12 10 10 8 8 3 2 4 3 1 1 3 6 8 10 10 10 11 13 16 18 20 21 21 20 21 20 17 17 17 18 19 19 18 17 16 16 15 14 11
6 10 15 12 13 14 15 15 14 12 14 12 10 7 3 2 3 4 4 4 5 6 7 9 10 10 10 11 12 13 14 16 17 17 19 16 16 15 16 19 19 19 18 17 16 15 15 12 10
7 12 15 16 16 16 17 17 15 16 17 13 11 9 6 5 5 7 7 7 7 7 8 8 9 9 10 8 9 8 10 11 14 17 17 15 14 14 14 14 15 16 17 14 14 13 10 10 9
11 15 16 16 15 15 16 16 16 18 18 13 12 10 10 9 9 8 9 9 7 8 9 9 9 9 9 9 8 8 8 8 9 14 17 13 9 9 11 10 11 11 11 11 10 8 8 9 9
14 14 15 15 15 17 18 18 18 18 17 14 13 11 12 12 11 10 9 10 9 8 9 9 10 10 9 9 8 9 8 9 11 12 15 15 10 9 10 9 10 10 11 10 7 6 7 7 7
10 14 17 18 18 16 18 19 17 19 15 14 12 11 11 12 10 10 10 10 10 10 9 9 10 11 10 8 8 9 9 10 11 11 13 16 13 10 9 9 8 9 11 10 7 6 6 5 4
12 15 16 16 14 11 12 16 16 16 12 13 12 12 12 11 10 12 11 10 10 10 9 10 11 11 11 10 10 9 9 10 10 11 14 15 15 13 10 9 8 8 11 10 7 6 5 4 4
10 10 9 10 9 8 8 15 14 12 12 13 12 11 11 10 11 12 11 10 10 9 10 10 10 11 11 10 9 8 9 10 10 11 13 15 16 16 11 9 9 10 10 7 5 5 5 4 4
4 7 13 14 9 9 10 17 15 12 12 12 11 9 10 10 11 11 10 9 8 9 9 10 10 11 11 10 8 8 9 9 9 11 11 14 16 17 13 9 9 12 8 6 6 5 5 5 4
10 12 14 16 12 13 14 17 15 11 12 12 10 8 8 9 10 9 9 8 8 8 8 10 10 10 9 8 7 7 8 8 9 9 11 14 15 17 14 10 11 11 8 7 7 6 5 5 5
12 14 17 18 14 13 15 18 16 12 11 10 8 7 7 8 8 8 8 6 5 6 7 9 10 11 9 8 8 9 9 8 8 9 12 14 15 16 14 10 11 10 9 9 9 7 7 5 4
12 15 15 15 12 14 16 18 16 11 8 5 5 6 7 7 7 8 7 6 7 7 7 8 10 10 10 9 8 8 8 8 8 9 11 14 15 15 14 13 11 11 9 10 9 8 6 4 5
12 11 13 17 17 12 13 11 10 7 5 3 4 4 4 6 6 6 6 6 6 7 8 8 9 9 9 9 7 7 7 7 7 10 11 12 14 15 14 14 12 11 10 10 10 9 8 6 5
10 10 14 16 12 7 7 7 8 7 4 3 3 4 4 5 4 5 7 6 6 7 8 8 8 10 10 9 10 10 9 9 9 9 9 12 13 14 16 15 13 12 10 10 10 9 7 8 7
8 14 16 16 12 10 10 6 6 4 4 3 2 3 4 3 3 5 6 6 6 6 7 8 8 8 10 10 11 12 10 9 8 9 11 12 12 14 15 15 14 13 11 11 11 10 9 7 6
11 12 13 10 6 5 5 4 4 2 4 4 3 2 2 2 2 3 4 5 4 4 5 6 8 8 9 10 11 13 12 11 10 11 12 11 10 12 15 15 14 13 11 12 11 11 11 8 7
9 8 5 4 2 4 6 4 3 3 5 5 4 3 2 1 1 3 4 5 4 4 5 5 6 7 9 10 11 12 13 13 13 12 12 12 11 11 15 14 14 13 12 12 11 11 10 10 9
8 5 3 4 5 7 8 4 2 4 5 6 6 4 3 4 3 3 4 4 3 3 4 4 5 6 8 9 10 10 12 11 11 12 11 12 10 12 15 16 14 14 14 13 12 10 9 9 9
5 4 5 5 7 6 4 3 2 6 8 9 8 7 6 5 4 4 5 4 3 3 3 3 4 5 6 8 9 10 10 11 11 11 11 10 10 11 16 16 15 14 14 14 13 10 11 10 10
4 5 4 3 5 5 6 4 3 6 9 11 10 8 8 8 7 5 5 5 4 4 3 3 4 5 5 6 8 9 10 11 11 11 12 11 12 13 15 16 16 15 15 15 13 11 11 11 10
3 3 3 4 4 4 6 5 3 6 8 9 9 9 9 8 7 6 5 5 5 5 3 3 3 3 4 4 6 8 9 10 11 12 12 11 12 13 15 16 17 16 16 15 14 13 13 13 11
3 3 3 3 5 5 6 7 3 4 7 8 9 9 9 9 8 7 6 5 5 5 4 3 2 3 3 3 4 7 7 8 10 12 12 11 12 13 14 15 16 16 16 16 16 15 14 14 13
Wind_Direction
296 266 248 241 240 233 240 237 248 259 256 261 297 294 292 282 290 105 155 125 113 133 143 157 159 162 162 159 157 154 151 149 148 146 143 141 139 135 134 131 128 125 120 117 114 110 106 103 101
294 267 246 231 232 236 242 233 242 253 261 277 294 289 283 285 330 102 133 109 121 135 144 159 160 163 164 162 159 157 154 152 151 149 147 145 142 140 138 134 129 125 121 117 114 110 108 105 103
281 259 234 225 228 232 241 241 236 249 268 269 263 265 261 277 321 88 113 114 125 139 149 157 161 165 165 163 160 158 156 154 152 151 150 148 146 143 140 135 131 126 123 119 116 113 111 109 107
279 233 238 238 239 238 252 269 278 278 262 248 249 257 244 248 7 95 109 113 123 140 148 154 162 166 167 165 163 161 158 156 155 153 151 150 146 143 140 136 132 128 125 122 120 118 115 112 111
254 237 232 239 246 250 257 266 273 271 264 258 249 251 266 320 90 109 117 119 131 143 144 154 163 166 167 167 166 164 161 159 156 154 153 151 148 144 140 137 134 132 129 127 124 121 119 116 114
239 234 236 242 248 251 252 257 267 271 266 257 258 259 254 251 109 112 121 133 145 145 148 153 164 166 168 169 168 166 164 160 157 155 153 152 149 146 143 140 138 136 134 131 128 126 123 120 117
247 248 246 255 263 264 267 277 276 283 281 270 273 272 260 246 58 74 102 134 149 147 147 153 163 167 169 170 169 167 164 161 159 157 155 153 150 148 146 144 142 139 137 134 132 129 126 123 121
263 266 255 254 262 266 276 287 294 302 293 299 286 265 268 328 349 8 103 165 156 149 153 161 163 164 168 169 168 166 164 162 160 157 154 151 150 149 147 145 144 143 140 137 135 132 129 127 126
268 249 249 254 270 283 303 304 301 308 294 294 292 298 321 356 330 325 271 211 182 169 165 168 171 169 165 166 168 164 163 161 158 156 151 149 149 148 147 145 146 145 143 140 139 138 134 131 133
222 246 255 270 284 293 297 296 298 297 288 285 292 304 334 330 293 269 251 223 204 192 180 175 172 170 166 167 164 163 165 162 161 158 158 157 154 150 147 144 147 147 145 143 144 144 143 142 148
238 253 271 279 284 289 291 289 289 283 276 276 280 290 294 278 268 257 249 240 220 205 198 184 173 172 169 168 170 167 163 165 165 163 167 156 147 143 140 143 144 145 146 145 149 153 162 157 153
266 270 279 284 292 291 283 283 279 271 271 275 276 279 281 261 249 244 247 243 237 216 206 192 176 174 173 171 175 169 168 170 168 170 166 155 152 149 150 153 154 156 157 152 160 171 169 153 153
269 274 283 287 289 287 282 275 275 269 271 271 268 263 270 267 251 244 242 244 237 230 212 200 184 178 177 174 175 176 173 174 171 170 167 159 156 157 157 158 160 163 159 160 171 170 160 150 159
282 289 288 285 277 275 275 276 272 267 267 267 266 262 261 259 258 246 239 236 230 227 218 206 192 182 179 179 177 177 175 174 172 169 168 162 160 161 161 157 162 162 159 165 171 163 153 149 149
286 286 283 271 261 264 278 271 259 264 267 265 263 264 261 256 259 253 236 234 225 220 218 211 198 188 181 181 183 179 178 177 174 172 168 166 162 162 163 159 160 160 160 163 166 154 143 141 142
274 273 279 285 276 275 268 269 268 277 276 267 260 260 262 259 255 260 244 233 225 218 215 215 205 193 185 183 185 180 179 179 176 171 171 168 165 165 164 159 161 161 158 158 154 150 142 145 149
265 290 297 303 282 289 272 277 278 271 267 267 262 261 268 264 259 263 255 234 222 218 214 212 203 194 188 183 183 186 179 179 177 173 171 171 168 167 163 160 160 159 154 155 158 152 148 151 151
307 303 296 298 298 297 286 285 287 277 264 260 259 259 260 264 263 264 258 235 220 214 214 211 205 196 187 181 182 187 180 180 178 175 173 171 170 167 162 160 160 158 155 158 157 155 152 151 151
301 297 296 298 300 298 290 291 291 281 271 263 253 253 256 260 271 271 262 229 213 210 214 210 202 197 186 183 185 186 185 182 181 175 176 172 170 169 163 161 162 160 161 165 162 157 157 159 146
297 297 300 304 307 305 292 290 291 279 267 265 269 257 249 256 266 265 269 233 212 209 217 218 206 197 191 190 189 184 182 184 183 176 177 175 173 171 169 163 164 164 164 166 167 158 158 164 155
299 298 305 309 311 296 289 287 287 289 274 252 267 271 266 260 261 267 271 244 221 210 212 217 212 199 195 192 183 182 182 181 185 182 179 180 178 174 172 167 164 167 166 170 170 166 163 168 171
302 303 306 303 303 295 294 294 288 293 284 255 259 262 259 260 255 267 272 255 233 219 214 213 209 200 198 193 187 184 192 194 188 182 181 181 180 177 174 171 168 169 169 170 174 171 166 163 173
297 302 296 287 280 283 273 268 283 277 285 278 269 273 263 251 244 263 267 261 255 228 220 212 203 204 202 199 194 190 195 201 185 176 180 186 184 181 175 174 172 172 172 173 174 170 171 173 172
308 308 294 272 260 265 273 276 290 308 316 318 309 295 296 268 277 280 287 285 269 248 232 215 203 206 205 203 196 192 192 194 185 181 183 190 188 184 178 177 176 175 175 175 175 174 175 177 175
332 335 335 337 288 266 315 304 284 335 353 349 347 354 1 304 310 311 311 306 302 288 247 216 207 210 209 205 200 196 194 195 191 187 188 189 191 187 183 181 179 178 177 175 173 175 178 178 177
316 322 333 317 302 307 312 281 299 10 16 13 9 1 356 355 3 338 312 302 292 295 273 225 215 219 215 208 203 198 198 198 198 192 192 192 195 189 180 181 181 179 176 176 173 176 178 179 180
313 317 301 288 284 278 268 270 300 5 12 11 7 3 357 354 353 342 324 309 304 293 268 233 234 235 225 213 205 201 201 204 201 195 195 193 195 189 180 182 182 180 178 178 175 179 180 179 184
251 302 326 317 310 298 293 298 329 5 6 1 359 1 355 356 354 345 328 319 318 311 290 249 238 242 243 230 209 208 205 206 203 199 198 197 195 189 182 182 182 181 181 180 179 179 178 181 185
304 298 292 280 273 293 303 304 357 355 356 352 349 353 352 347 346 342 329 326 321 315 305 269 245 245 249 248 222 207 207 205 204 203 203 201 198 190 184 183 183 183 183 182 182 183 180 184 185
273 288 297 287 288 280 282 282 316 352 356 349 343 342 344 340 339 338 334 333 333 328 327 314 284 257 254 254 244 215 205 205 207 205 201 201 198 193 185 182 184 185 185 183 184 185 185 186 187
Height
1489 1491 1494 1496 1497 1492 1482 1469 1461 1456 1453 1453 1453 1454 1455 1456 1458 1465 1464 1462 1462 1463 1465 1467 1471 1474 1477 1481 1484 1487 1490 1493 1496 1499 1502 1504 1506 1508 1510 1512 1514 1515 1517 1518 1520 1521 1522 1523 1524
1487 1491 1494 1494 1492 1488 1473 1462 1459 1454 1452 1452 1454 1455 1456 1456 1457 1460 1460 1461 1462 1464 1465 1467 1470 1474 1477 1480 1483 1487 1490 1493 1496 1498 1501 1503 1506 1508 1510 1512 1514 1515 1517 1519 1520 1521 1522 1523 1524
1487 1490 1492 1488 1482 1475 1463 1452 1450 1450 1451 1452 1454 1455 1456 1457 1458 1459 1460 1460 1462 1464 1465 1467 1470 1473 1477 1480 1483 1486 1489 1492 1495 1498 1500 1503 1505 1507 1510 1512 1513 1515 1517 1519 1520 1521 1523 1524 1525
1488 1490 1488 1483 1471 1461 1457 1452 1450 1449 1450 1452 1454 1455 1455 1457 1458 1458 1459 1460 1462 1464 1466 1467 1469 1473 1476 1479 1482 1485 1488 1491 1494 1497 1499 1502 1504 1507 1509 1511 1513 1515 1517 1519 1520 1522 1523 1524 1526
1487 1486 1483 1475 1464 1458 1454 1452 1450 1449 1449 1451 1453 1453 1454 1456 1457 1457 1458 1460 1461 1463 1465 1467 1469 1472 1475 1478 1481 1484 1487 1490 1493 1496 1499 1501 1504 1506 1508 1511 1513 1515 1517 1518 1520 1522 1523 1524 1526
1486 1482 1478 1468 1458 1453 1451 1450 1449 1448 1448 1450 1452 1452 1453 1455 1456 1457 1458 1459 1461 1462 1464 1466 1469 1471 1474 1477 1480 1483 1486 1489 1492 1495 1498 1500 1502 1505 1507 1510 1512 1514 1516 1518 1520 1522 1523 1525 1527
1484 1479 1472 1463 1457 1453 1450 1449 1449 1448 1448 1449 1450 1451 1451 1453 1454 1455 1456 1458 1460 1461 1462 1465 1467 1470 1472 1475 1478 1481 1484 1487 1490 1493 1496 1499 1501 1504 1507 1509 1511 1514 1516 1518 1520 1522 1523 1525 1527
1481 1478 1468 1462 1458 1453 1451 1450 1449 1451 1449 1449 1450 1450 1450 1451 1451 1452 1454 1456 1458 1459 1461 1463 1466 1468 1470 1473 1476 1479 1482 1486 1489 1492 1495 1498 1500 1503 1506 1508 1511 1513 1515 1518 1520 1522 1523 1525 1527
1480 1479 1467 1461 1458 1454 1452 1452 1451 1451 1449 1449 1449 1449 1448 1448 1449 1451 1453 1455 1456 1458 1460 1462 1464 1466 1468 1471 1474 1477 1480 1483 1487 1490 1493 1496 1499 1502 1504 1507 1510 1513 1515 1517 1519 1521 1523 1525 1528
1477 1473 1463 1459 1458 1456 1454 1454 1453 1452 1448 1447 1447 1447 1448 1447 1448 1449 1450 1452 1454 1455 1457 1459 1461 1463 1465 1468 1471 1474 1477 1480 1484 1487 1491 1494 1497 1500 1503 1506 1509 1512 1514 1516 1519 1521 1523 1525 1527
1471 1467 1462 1460 1458 1457 1455 1453 1453 1452 1447 1447 1446 1446 1446 1446 1446 1447 1448 1449 1451 1452 1454 1456 1458 1460 1462 1465 1468 1470 1474 1477 1481 1484 1488 1492 1495 1498 1501 1504 1507 1510 1513 1515 1518 1520 1522 1525 1527
1468 1464 1462 1459 1457 1456 1454 1451 1450 1448 1445 1445 1443 1443 1443 1443 1443 1444 1445 1446 1448 1449 1451 1452 1454 1457 1459 1461 1464 1467 1470 1474 1477 1481 1485 1488 1492 1495 1498 1502 1505 1508 1511 1514 1517 1519 1522 1524 1527
1466 1462 1460 1457 1455 1454 1450 1447 1445 1442 1441 1440 1439 1438 1438 1439 1439 1440 1441 1442 1444 1445 1447 1449 1450 1453 1455 1458 1461 1464 1466 1470 1474 1477 1481 1485 1489 1492 1496 1499 1503 1506 1510 1513 1515 1519 1521 1523 1526
1463 1461 1458 1455 1452 1449 1446 1442 1441 1435 1436 1435 1434 1434 1434 1434 1435 1435 1436 1437 1438 1440 1442 1444 1446 1448 1451 1454 1457 1460 1463 1466 1470 1473 1477 1481 1485 1489 1493 1497 1501 1504 1508 1511 1514 1517 1520 1523 1525
1463 1460 1454 1448 1445 1443 1443 1437 1434 1431 1431 1430 1429 1429 1428 1429 1430 1430 1431 1432 1434 1435 1437 1440 1442 1444 1446 1449 1452 1456 1459 1463 1466 1469 1473 1477 1481 1485 1490 1494 1498 1502 1506 1510 1513 1516 1519 1521 1524
1460 1457 1453 1442 1441 1439 1443 1434 1427 1427 1426 1425 1424 1424 1423 1423 1424 1425 1426 1427 1429 1430 1432 1435 1437 1439 1442 1445 1448 1452 1455 1459 1461 1464 1469 1473 1477 1482 1486 1491 1495 1499 1503 1507 1511 1514 1517 1520 1522
1456 1456 1450 1443 1438 1436 1437 1429 1422 1421 1421 1419 1418 1418 1419 1418 1419 1420 1421 1421 1423 1425 1426 1429 1431 1434 1437 1440 1444 1447 1451 1454 1457 1460 1464 1469 1473 1478 1482 1487 1492 1496 1500 1504 1508 1512 1515 1517 1520
1460 1457 1450 1445 1437 1434 1431 1423 1416 1415 1414 1413 1413 1413 1414 1414 1414 1415 1415 1417 1418 1420 1422 1424 1425 1429 1432 1435 1439 1443 1446 1449 1452 1455 1459 1464 1469 1473 1478 1483 1488 1493 1497 1501 1505 1509 1512 1515 1518
1458 1454 1449 1441 1435 1432 1427 1420 1413 1410 1409 1408 1408 1409 1410 1410 1410 1411 1411 1411 1412 1414 1416 1418 1419 1423 1426 1429 1433 1437 1440 1444 1447 1451 1456 1460 1464 1469 1474 1479 1484 1489 1493 1497 1502 1506 1510 1513 1516
1457 1453 1446 1437 1432 1430 1424 1416 1409 1404 1404 1404 1404 1403 1404 1405 1406 1406 1406 1405 1407 1409 1410 1412 1414 1417 1420 1424 1428 1432 1436 1439 1443 1447 1450 1455 1460 1464 1469 1474 1479 1485 1489 1494 1498 1502 1506 1509 1512
1455 1451 1446 1441 1432 1427 1423 1415 1407 1401 1400 1400 1401 1401 1401 1401 1401 1402 1402 1402 1403 1404 1406 1407 1410 1412 1415 1420 1424 1428 1432 1435 1438 1440 1445 1451 1455 1459 1465 1470 1475 1480 1485 1489 1494 1498 1502 1505 1509
1453 1446 1443 1439 1438 1433 1427 1425 1409 1402 1398 1397 1397 1398 1398 1399 1399 1399 1399 1399 1399 1400 1401 1403 1405 1408 1412 1415 1418 1421 1424 1427 1430 1435 1440 1446 1450 1455 1461 1465 1470 1476 1480 1485 1490 1494 1498 1501 1504
1450 1444 1440 1436 1433 1432 1422 1423 1410 1400 1398 1396 1395 1395 1395 1396 1397 1397 1397 1396 1396 1396 1397 1399 1401 1404 1407 1410 1413 1417 1420 1423 1427 1431 1435 1440 1445 1450 1456 1461 1465 1471 1476 1481 1486 1490 1494 1497 1500
1448 1443 1436 1429 1429 1434 1418 1418 1411 1402 1399 1395 1393 1394 1394 1394 1395 1395 1395 1394 1393 1393 1393 1394 1396 1399 1402 1405 1408 1412 1415 1418 1422 1426 1430 1435 1440 1444 1449 1455 1460 1465 1471 1476 1481 1485 1489 1493 1496
1450 1451 1451 1446 1439 1430 1412 1413 1410 1400 1397 1395 1394 1393 1393 1393 1393 1393 1392 1391 1390 1390 1389 1390 1392 1394 1397 1400 1403 1407 1410 1414 1417 1421 1425 1430 1434 1438 1443 1450 1455 1460 1466 1471 1476 1481 1485 1489 1492
1454 1453 1461 1461 1448 1431 1417 1414 1407 1398 1396 1395 1394 1393 1392 1392 1392 1392 1391 1389 1388 1387 1387 1387 1388 1390 1393 1395 1399 1402 1406 1410 1414 1417 1421 1425 1429 1433 1438 1445 1450 1455 1461 1466 1471 1476 1480 1484 1488
1454 1453 1450 1453 1445 1439 1421 1410 1403 1399 1397 1396 1395 1393 1392 1392 1391 1391 1390 1388 1387 1385 1384 1384 1385 1387 1389 1391 1394 1398 1401 1405 1409 1412 1417 1421 1426 1430 1434 1439 1444 1450 1455 1460 1466 1471 1475 1479 1483
1452 1452 1454 1456 1454 1443 1423 1413 1411 1405 1402 1400 1397 1396 1394 1392 1391 1390 1388 1387 1385 1384 1383 1382 1382 1383 1384 1387 1389 1392 1395 1399 1404 1408 1412 1417 1421 1426 1429 1434 1439 1444 1450 1455 1460 1465 1470 1474 1478
1452 1453 1453 1453 1450 1449 1438 1423 1408 1406 1404 1403 1400 1397 1396 1393 1390 1388 1386 1385 1383 1382 1381 1380 1380 1380 1382 1383 1385 1388 1391 1395 1398 1403 1407 1412 1416 1421 1424 1429 1434 1439 1444 1449 1455 1459 1464 1468 1472
1449 1451 1453 1460 1455 1446 1443 1427 1407 1405 1403 1402 1400 1398 1396 1393 1390 1387 1385 1383 1381 1380 1379 1378 1378 1378 1378 1380 1381 1384 1387 1391 1393 1397 1402 1407 1411 1415 1419 1424 1429 1433 1438 1443 1448 1453 1458 1462 1466